STARLINK-31481 (59541 NORAD) Tracking and Keplerian Element Data

This shows tracking and keplerian element data for the satellite.

Feedback or suggestion? Click here.




ElementValue
Catalog59541
NameSTARLINK-31481
Epoch Orbit897
Epoch Day159.93897461
Epoch Year2024
RAAN28.4447
Inclination43.0047
Eccentricity0.0001608
Argument of Perigee280.2011
Mean Anonmoly79.8664
Mean Motion15.40704224
Decay Rate2.99E-05
L11 59541U 24074H 24159.93897461 .00002990 00000+0 78805-4 0 9990
L22 59541 43.0047 28.4447 0001608 280.2011 79.8664 15.40704224 8975



Live tracking and technical data element details for STARLINK-31481 (NORAD 59541). STARLINK-31481 can be tracked NOW for your location showing map with azimuth and elevation plus other details from your city location.







IsCatalogInMostPopularTable: catalog: 59541, numindb: 11
Update: records affected: 1



GetName: 59541 STARLINK-31481

Hit Count: updated at: Fri, 14 Jun 2024 17:51:18 GMT